Regional Weather Roundup
Issued by NWS State College, PA

Home | Current Version | Previous Version | Text Only | Print | Product List | Glossary Off
Versions: 1 2 3 4 5 6 7 8 9 10 11 12 13 14 15 16 17 18 19 20 21 22 23 24 25 26 27 28 29 30 31 32 33 34 35 36 37 38 39 40 41 42 43 44 45 46 47 48 49 50

167
ASUS41 KCTP 040803
RWRCTP

REGIONAL WEATHER ROUNDUP
NATIONAL WEATHER SERVICE STATE COLLEGE PA
400 AM EDT WED MAY 04 2016

Note: "fair" indicates few or no clouds below 12,000 feet with no
significant weather and/or obstructions to visibility.

* = STATION THAT DOES NOT REPORT PRECIPITATION /E.G. RAIN...SNOW...ETC/
    THUNDER OR FOG.

PAZ002>004-007>009-013>016-020>023-029>032-040900-
WESTERN PENNSYLVANIA

CITY           SKY/WX    TMP DP  RH WIND       PRES   REMARKS
ERIE           CLEAR     41  38  89 S6        29.74F
MEADVILLE      CLEAR     39  38  96 CALM      29.74F
FRANKLIN*      CLEAR     37  36  93 CALM      29.76F
NEW CASTLE     FAIR      41  38  89 CALM      29.75F
BEAVER COUNTY  NOT AVBL
BUTLER*        CLOUDY    48  39  71 CALM      29.76F
PITTSBURGH INT CLOUDY    52  43  71 CALM      29.74F
PITTSBURGH     LGT RAIN  50  42  74 W5        29.73F
INDIANA*       CLOUDY    46  45  93 CALM      29.77F
LATROBE        MOCLDY    46  46 100 SW5       29.76S FOG
WASHINGTON CO* CLOUDY    50  45  81 CALM      29.75F
$$

PAZ004>006-010>012-017>019-024>028-033>037-041-042-045-046-049>053-040900-
CENTRAL PENNSYLVANIA

CITY           SKY/WX    TMP DP  RH WIND       PRES   REMARKS
BRADFORD       FOG       34  33  96 CALM      29.73F VSB 1/4
DUBOIS         MOCLDY    43  41  93 CALM      29.73F
CLEARFIELD     PTCLDY    42  39  89 N6        29.74F
JOHNSTOWN      CLEAR     47  39  74 SW7       29.73F
ALTOONA        CLEAR     50  44  80 CALM      29.73F
STATE COLLEGE  CLOUDY    49  48  96 CALM      29.73F
WILLIAMSPORT   CLOUDY    52  48  86 CALM      29.74F
SELINSGROVE    CLOUDY    53  51  93 CALM      29.75F FOG
FT INDIANTOWN  DRIZZLE   53  53 100 E2        29.76S FOG
CAPITAL CITY   CLOUDY    55  51  86 E7        29.75S
HARRISBURG     CLOUDY    54  51  90 E6        29.75S FOG
YORK           LGT RAIN  53  52  96 E5        29.75S FOG
$$

PAZ038>040-043-044-047-048-054-055-060>062-067>071-040900-
EASTERN PENNSYLVANIA

CITY           SKY/WX    TMP DP  RH WIND       PRES   REMARKS
SCRANTON       FOG       50  50 100 CALM      29.75F VSB 1/4
MOUNT POCONO   LGT RAIN  47  46  97 SE6       29.76S VSB 1/2
ALLENTOWN      LGT RAIN  52  48  86 SE3       29.78S
QUAKERTOWN*    CLOUDY    50  50 100 CALM      29.80R
READING        LGT RAIN  52  49  89 SE6       29.76S
LANCASTER      LGT RAIN  52  51  97 SE6       29.76S FOG
COATESVILLE    LGT RAIN  50  50 100 MISG      29.78F
POTTSTOWN      LGT RAIN  49  49 100 CALM      29.80R FOG
BLUE BELL      CLOUDY    48  46  93 CALM      29.78R
DOYLESTOWN     LGT RAIN  48  48 100 CALM      29.79R
WILLOW GROVE   NOT AVBL
NORTH PHILA    LGT RAIN  52  48  86 E7        29.80S
PHILADELPHIA   LGT RAIN  52  47  83 E7        29.79S
$$




USA.gov is the U.S. government's official web portal to all federal, state and local government web resources and services.